GEC8264 SUMU-SAEZ

Flight info

Callsign GEC8264
Flight time N/A
Altitude 16000
Route DAGUS DCT UGIMI UGIMI7B
Aircraft B77L/H-SDE1E2E3FGHIJ2J3J4J5M1RWXY/LB1D1

Departure

Time 2026-05-04 13:16
Airport Carrasco General Cesáreo L. Berisso International Airport (SUMU)

Arrival

Time N/A
Airport Ezeiza International Airport - Ministro Pistarini (SAEZ)
Time Latitude Longitude Altitude Speed Heading
2026-05-04 13:00 -34.83876 -56.02541 86 ft 0 kts
2026-05-04 13:10 -34.83892 -56.02541 88 ft 3 kts
2026-05-04 13:10 -34.83911 -56.02541 91 ft 3 kts
2026-05-04 13:11 -34.83930 -56.02540 90 ft 3 kts 341°
2026-05-04 13:11 -34.83948 -56.02529 90 ft 3 kts 317°
2026-05-04 13:11 -34.83960 -56.02511 90 ft 3 kts 292°
2026-05-04 13:11 -34.83964 -56.02495 89 ft 0 kts 276°
2026-05-04 13:14 -34.83962 -56.02508 90 ft 7 kts 282°
2026-05-04 13:14 -34.83949 -56.02598 89 ft 11 kts 272°
2026-05-04 13:14 -34.83963 -56.02693 89 ft 11 kts 247°
2026-05-04 13:14 -34.84002 -56.02777 92 ft 11 kts 244°
2026-05-04 13:15 -34.84012 -56.02873 88 ft 11 kts 269°
2026-05-04 13:15 -34.84012 -56.02968 87 ft 11 kts 271°
2026-05-04 13:15 -34.84006 -56.03061 92 ft 8 kts 303°
2026-05-04 13:15 -34.83963 -56.03075 92 ft 0 kts 358°
2026-05-04 13:16 -34.83880 -56.03078 91 ft 46 kts 359°
2026-05-04 13:16 -34.83272 -56.03088 91 ft 126 kts 359°
2026-05-04 13:16 -34.82194 -56.03119 250 ft 170 kts 358°
2026-05-04 13:16 -34.80984 -56.03175 931 ft 173 kts 353°
2026-05-04 13:17 -34.79785 -56.03215 1874 ft 173 kts 356°
2026-05-04 13:17 -34.78533 -56.03092 2237 ft 195 kts 358°
2026-05-04 13:17 -34.77161 -56.03365 2424 ft 210 kts 325°
2026-05-04 13:17 -34.76273 -56.04800 2835 ft 225 kts 284°
2026-05-04 13:18 -34.76374 -56.06744 3359 ft 241 kts 256°
2026-05-04 13:18 -34.76930 -56.08716 4025 ft 250 kts 254°
2026-05-04 13:18 -34.77500 -56.10729 5026 ft 254 kts 254°
2026-05-04 13:18 -34.78080 -56.12783 6050 ft 258 kts 254°
2026-05-04 13:19 -34.78665 -56.14873 6966 ft 264 kts 254°
2026-05-04 13:19 -34.79254 -56.16987 7986 ft 264 kts 254°
2026-05-04 13:19 -34.79842 -56.19116 9004 ft 267 kts 254°
2026-05-04 13:19 -34.80432 -56.21269 9970 ft 270 kts 254°
2026-05-04 13:20 -34.81029 -56.23462 10717 ft 280 kts 254°
2026-05-04 13:20 -34.81667 -56.25825 10986 ft 309 kts 254°
2026-05-04 13:20 -34.82366 -56.28425 11203 ft 337 kts 253°
2026-05-04 13:20 -34.83117 -56.31215 11749 ft 353 kts 253°
2026-05-04 13:21 -34.83887 -56.34079 12621 ft 359 kts 253°
2026-05-04 13:21 -34.84677 -56.36983 13522 ft 365 kts 252°